GFSSW_prec_cloud_132.txt.gz
Cloud_Cover
7 4 0 6 5 69 4 12 0 0 28 10 30 89 100 100 100 100 46 3 89 36 87 5 16 99 100 100 100 100 100 100 100 100 61 100 95 83 100 100 100 100 88 64 100
3 5 71 5 3 5 3 5 0 0 0 19 27 51 78 98 98 100 77 58 5 5 23 31 5 92 100 100 100 100 99 100 100 100 96 87 93 8 100 82 100 100 96 67 90
3 3 31 10 6 5 5 0 0 0 0 15 100 100 54 100 100 100 100 100 87 54 9 100 60 5 100 100 100 100 100 100 100 100 93 52 60 5 95 46 100 100 100 100 100
5 0 5 6 5 5 7 4 5 0 0 0 0 62 99 100 80 100 100 100 100 100 100 100 53 5 26 100 100 100 100 100 98 99 88 75 63 9 58 5 86 99 98 100 100
5 5 7 99 45 10 46 15 5 8 0 0 47 30 99 100 90 92 100 100 100 100 100 100 100 48 20 100 100 100 100 100 84 86 28 88 88 79 96 8 62 100 100 100 100
5 5 66 99 100 96 76 5 34 4 4 0 5 100 96 98 44 91 100 74 100 100 100 100 100 100 10 100 85 100 100 100 90 91 100 80 87 83 72 91 79 94 100 100 100
5 5 6 5 100 100 43 5 6 61 3 0 0 18 96 45 3 4 100 100 100 100 100 100 100 100 6 27 100 100 100 100 91 100 54 97 100 99 76 74 97 100 100 100 100
23 5 5 5 7 13 7 5 6 26 21 3 0 93 51 1 11 3 98 100 100 100 100 100 100 100 39 5 4 90 99 100 95 100 97 67 95 100 79 24 79 98 100 100 100
100 98 33 5 5 5 5 5 0 2 5 42 13 93 90 0 0 3 100 100 100 100 100 100 100 100 61 7 19 30 92 100 100 100 100 76 100 100 79 77 56 71 83 96 100
100 100 99 5 20 68 57 5 4 0 13 6 63 25 28 0 0 98 100 100 100 100 100 100 100 100 99 71 44 11 96 100 100 100 100 100 100 89 7 90 84 39 6 13 19
100 100 100 71 99 100 100 100 43 55 46 43 36 0 1 0 0 78 100 100 100 100 100 100 100 100 100 3 5 2 0 100 100 100 100 100 100 100 17 6 99 88 70 92 100
86 100 100 100 100 100 96 10 0 0 98 49 46 4 6 0 5 18 100 100 100 100 100 100 100 91 84 86 70 42 1 30 100 100 77 100 100 100 66 5 27 54 84 100 95
100 100 100 100 100 98 57 5 4 0 32 85 89 93 53 39 26 0 99 100 100 100 100 100 70 94 100 100 100 94 87 24 90 100 5 72 90 100 100 54 56 32 50 36 99
98 100 100 100 100 65 44 30 5 5 46 43 89 100 50 55 91 2 0 100 100 100 100 100 100 67 100 100 80 100 83 100 76 100 5 78 53 28 66 95 66 26 19 51 71
43 100 100 100 94 87 16 28 40 98 100 3 54 53 81 5 1 5 3 51 100 100 100 100 100 76 61 7 95 100 100 100 100 100 100 99 93 20 5 83 100 99 65 72 65
100 100 100 100 100 92 94 100 100 100 84 42 99 84 44 3 3 5 12 2 2 48 19 100 100 100 100 94 100 100 100 100 100 99 96 5 51 87 5 95 100 98 98 80 100
100 100 100 100 100 97 95 100 100 97 2 78 97 100 4 41 3 1 94 96 56 61 96 100 100 100 74 100 91 100 100 100 100 100 10 1 4 0 34 53 100 100 100 61 100
100 100 100 100 100 100 100 100 48 3 56 34 100 68 100 30 32 5 20 97 96 100 100 100 100 100 99 68 100 100 96 93 100 49 2 19 20 2 100 5 100 100 100 100 98
100 100 100 100 100 100 98 91 3 2 3 100 100 100 100 92 9 50 6 52 14 89 99 100 100 94 70 89 65 99 100 45 99 97 30 3 0 0 23 99 3 100 100 100 100
100 100 100 100 100 100 84 11 1 1 0 84 36 56 98 90 60 5 22 1 6 18 100 100 100 97 14 95 100 97 89 100 100 57 71 5 2 0 0 100 34 79 100 100 100
100 100 100 100 100 100 44 5 5 5 0 4 42 90 97 100 57 95 6 1 1 0 100 100 100 82 100 100 100 100 99 100 100 32 5 2 0 0 0 43 100 7 63 100 100
100 100 100 100 100 92 8 5 4 8 5 0 0 11 37 100 100 90 31 5 0 4 16 12 100 100 100 98 85 14 68 100 100 91 5 5 13 0 0 4 100 100 40 95 100
100 100 100 100 98 98 22 5 5 9 5 3 5 1 95 93 68 96 84 17 59 83 5 6 56 100 100 100 100 100 50 40 100 84 27 5 1 0 63 55 98 100 100 100 100
100 100 100 100 56 32 37 38 56 5 4 5 3 4 5 100 51 72 8 100 100 45 5 100 6 77 74 5 84 100 49 5 69 67 30 9 0 0 2 5 62 100 100 100 100
100 100 100 97 91 33 63 43 5 55 6 5 32 5 5 33 100 27 61 100 100 100 80 100 100 83 9 79 100 96 100 40 66 3 97 5 1 4 6 6 100 100 100 100 100
100 100 100 100 14 97 45 5 5 5 22 10 5 5 4 5 8 94 100 100 98 100 100 100 100 100 84 77 100 100 100 95 10 8 6 0 0 0 6 100 79 100 100 100 100
100 100 100 100 100 100 83 97 35 19 4 2 46 20 5 4 3 5 81 46 5 84 100 100 97 100 100 31 60 100 93 28 8 0 4 4 0 79 15 36 47 100 100 100 100

GFSSW_prec_cloud_138.txt.gz
Cloud_Cover
1 0 0 0 0 0 0 0 0 0 0 0 99 44 100 98 100 93 79 7 0 0 0 0 0 0 0 0 3 5 41 79 100 100 100 98 100 100 100 100 100 100 99 98 56
5 2 0 4 0 0 0 0 0 0 0 0 0 31 100 95 15 98 8 0 0 0 0 0 0 0 0 0 0 1 4 100 98 100 100 100 99 100 95 99 76 83 100 100 96
5 5 2 0 3 0 0 0 0 0 0 0 0 55 100 48 100 100 5 0 0 0 2 0 4 0 0 0 2 0 0 100 83 93 100 100 95 60 100 100 72 34 34 100 100
1 5 5 1 0 4 4 0 0 0 1 0 0 13 28 4 82 8 0 1 12 38 57 34 18 7 4 2 2 0 0 45 100 100 100 100 100 100 79 100 73 18 11 100 100
5 1 5 5 5 0 1 1 0 0 0 0 0 24 44 94 61 21 0 5 27 100 64 32 60 14 5 5 5 5 0 0 61 100 91 100 100 100 100 97 92 94 64 100 100
5 2 4 5 5 5 0 0 4 0 0 0 0 35 56 99 38 0 0 74 85 100 100 100 100 97 80 8 5 5 5 0 3 98 100 100 100 100 100 99 100 78 98 77 93
38 5 0 5 5 27 5 3 5 2 2 0 2 16 100 14 0 1 0 55 94 86 100 100 100 94 100 99 10 5 6 4 4 91 100 100 95 100 100 99 97 54 99 57 43
5 6 2 2 5 5 83 5 5 5 0 0 3 50 100 26 0 14 3 9 94 64 89 100 84 96 100 93 53 100 38 8 3 21 100 69 84 100 100 98 72 41 71 93 57
5 70 7 40 23 5 98 50 5 5 5 20 3 5 90 90 0 0 5 2 61 100 100 72 100 63 100 88 93 100 100 66 69 31 93 69 77 100 100 79 99 69 82 67 100
5 36 83 42 82 28 92 100 10 9 79 99 70 33 0 4 8 25 53 30 51 100 100 100 100 100 100 100 100 98 99 96 22 5 82 83 41 100 100 100 100 25 43 100 99
50 55 78 99 89 49 100 100 100 100 100 100 71 5 0 0 95 39 12 100 70 100 100 90 100 98 100 100 100 100 100 100 100 100 55 63 31 100 100 100 100 91 5 66 100
48 100 93 100 17 100 100 100 55 18 100 100 68 75 10 13 48 100 100 74 44 85 100 96 100 0 84 100 100 100 100 100 91 100 57 14 28 100 5 100 100 91 84 98 71
100 100 100 100 93 100 100 59 100 84 98 100 100 100 100 100 95 100 100 100 100 86 35 100 8 7 34 100 100 100 100 93 98 100 77 60 9 100 47 2 98 100 100 100 89
98 100 100 100 100 100 100 100 100 100 100 100 100 88 99 100 100 100 100 100 100 100 100 69 35 25 96 99 100 100 100 100 100 79 86 17 29 99 91 0 5 89 100 100 100
85 100 100 100 82 100 100 100 100 100 100 66 67 70 18 70 100 100 100 100 100 94 100 8 67 38 65 6 97 100 100 100 100 98 83 90 100 5 84 0 5 100 100 100 94
100 100 100 100 100 100 100 100 100 100 100 99 50 65 63 100 100 100 100 100 100 100 100 31 99 87 46 91 100 100 100 100 100 100 100 15 83 4 76 68 66 52 100 100 98
100 100 100 100 100 100 100 100 100 100 97 100 96 97 19 90 100 100 100 100 100 100 18 5 5 4 11 100 100 100 100 100 100 100 38 41 75 5 100 42 100 100 98 100 99
100 100 100 100 87 100 100 100 100 100 7 47 88 100 71 40 70 100 100 100 100 100 91 83 92 14 4 11 21 21 100 100 100 100 1 49 16 0 100 100 100 100 64 100 100
100 100 100 98 100 100 100 100 100 70 20 100 100 100 100 83 10 92 100 100 100 98 54 96 30 0 21 66 22 12 100 100 100 63 23 37 1 0 11 100 100 100 100 100 100
100 100 100 100 100 100 100 100 98 95 100 94 75 100 100 100 82 87 66 81 100 100 84 29 6 0 4 69 86 8 68 100 100 100 91 3 0 0 0 76 100 100 100 100 100
100 100 100 100 100 100 100 100 98 100 100 98 14 49 66 42 72 79 16 10 49 100 99 12 42 33 41 9 16 99 100 100 100 100 77 10 0 0 4 5 100 100 100 100 90
100 100 100 100 100 100 100 100 100 76 100 7 5 14 18 5 52 18 5 3 2 7 6 59 88 97 42 77 5 5 93 90 100 100 95 42 12 0 0 6 88 100 100 100 85
100 100 100 86 100 100 100 100 90 63 100 98 5 4 8 10 40 5 14 3 0 5 11 56 41 99 25 47 84 98 5 35 100 95 68 36 2 0 0 0 75 100 100 100 100
100 100 100 100 100 100 100 62 100 100 100 100 4 94 53 33 20 82 93 22 6 16 5 40 36 9 3 26 84 100 100 96 100 100 90 69 1 0 0 0 5 100 100 100 100
100 100 100 100 100 100 100 100 99 100 97 15 6 29 36 85 100 56 99 99 100 100 55 100 100 53 23 3 89 100 70 97 100 78 100 11 4 0 0 0 51 22 100 100 100
100 100 100 100 100 100 100 100 100 100 100 59 100 100 100 29 8 12 83 99 41 59 100 54 8 100 99 73 35 60 67 28 43 85 100 81 17 0 0 0 1 99 89 100 100
100 100 100 100 100 100 100 100 100 100 100 100 100 100 99 69 3 9 3 82 20 65 58 55 77 40 4 80 100 97 4 90 21 5 48 70 15 0 0 0 0 6 99 100 100

GFSSW_prec_cloud_141.txt.gz
Cloud_Cover
100 100 100 100 88 79 32 5 5 7 11 5 5 5 57 99 82 97 23 16 1 0 0 0 0 0 0 0 0 0 5 28 16 40 84 100 100 100 100 100 97 100 100 99 96
100 100 100 100 100 46 60 6 5 5 5 5 5 5 49 48 30 62 1 0 0 0 0 0 0 0 0 0 0 0 0 3 2 5 51 65 81 99 100 100 100 100 100 100 100
100 74 96 100 12 24 67 93 5 5 5 3 0 64 100 63 19 27 3 0 0 0 0 0 0 0 0 0 0 0 0 0 2 2 17 38 81 100 100 100 100 85 67 100 100
11 99 99 54 76 11 50 30 5 5 4 0 0 26 82 7 64 7 0 0 0 0 0 0 0 0 0 0 0 0 0 0 0 1 1 49 34 84 100 100 100 74 76 87 51
4 5 6 58 8 5 5 5 5 4 0 0 0 2 54 82 25 26 0 4 13 7 66 16 7 6 2 0 4 2 2 2 0 0 0 0 92 23 79 100 100 100 87 90 98
4 5 5 2 22 7 4 5 0 0 0 0 0 30 76 95 15 58 0 61 99 57 100 4 10 14 29 67 6 15 0 2 0 0 0 0 54 8 84 100 100 99 59 70 9
4 2 5 4 0 5 5 5 0 0 0 0 0 11 96 11 11 35 2 31 77 88 68 63 88 21 17 13 14 10 5 0 0 0 0 0 0 3 100 26 95 100 83 89 10
5 4 0 5 1 4 5 5 5 0 3 0 0 58 99 9 95 0 23 25 45 100 74 70 100 100 100 100 100 85 21 17 1 2 0 0 0 94 100 7 100 100 92 70 6
7 8 2 5 10 0 4 5 5 5 5 0 2 86 97 2 7 4 62 10 80 99 100 87 85 96 100 100 100 100 98 74 5 77 69 8 0 50 100 10 94 100 100 64 20
5 6 5 5 36 11 2 51 97 78 5 6 59 82 38 1 16 31 1 11 82 100 100 100 100 100 100 100 100 100 100 72 26 25 32 12 19 4 100 38 60 100 100 64 99
5 5 5 5 49 92 100 100 100 100 76 15 26 7 1 0 21 44 16 3 90 94 100 100 100 86 100 100 76 100 87 58 7 100 95 79 32 0 100 2 23 100 100 66 76
30 79 8 5 82 100 100 100 34 82 100 89 79 70 7 17 36 39 9 18 98 99 100 100 100 6 98 98 99 100 51 72 81 100 86 55 10 6 93 4 20 100 100 100 97
21 89 56 74 88 100 100 100 66 76 97 100 100 95 13 6 6 0 4 41 67 95 98 34 5 92 82 92 100 71 54 85 60 100 97 99 4 3 16 38 13 100 62 100 100
5 12 97 100 98 100 100 100 100 100 100 100 100 100 94 25 8 5 5 14 98 100 100 99 36 92 88 11 42 98 15 90 94 100 100 100 61 2 39 5 0 100 99 100 100
5 5 100 100 11 100 98 100 100 100 100 99 100 89 84 68 6 74 100 67 5 30 100 36 100 99 100 5 77 11 91 98 100 100 100 100 100 0 3 5 59 100 100 100 100
5 15 98 97 90 62 100 100 100 100 100 100 97 100 100 84 63 58 98 100 100 100 100 100 99 99 99 77 95 97 100 100 97 100 100 90 95 2 3 56 100 100 100 100 100
92 94 99 97 49 74 100 100 100 100 100 100 100 98 58 96 100 27 100 100 100 100 77 62 100 100 67 100 54 37 100 100 100 100 100 44 100 6 14 35 98 100 100 100 100
98 100 100 58 39 100 100 100 100 100 100 99 100 100 100 100 88 89 100 100 100 100 100 100 100 98 100 75 44 98 100 100 100 82 100 98 78 0 0 100 100 100 100 100 100
100 65 100 100 100 100 100 100 100 54 99 98 100 100 100 100 97 100 98 100 100 100 100 100 91 100 100 100 100 99 100 66 100 99 100 100 36 0 0 86 100 100 100 100 100
100 100 82 100 100 100 100 100 100 76 100 100 96 71 68 84 100 100 67 100 95 99 100 100 100 100 100 100 100 100 100 100 100 100 100 96 74 0 0 4 100 100 100 100 100
100 100 100 100 100 100 100 100 100 100 100 96 100 64 59 52 86 100 75 100 100 100 100 100 100 100 100 100 100 100 100 93 72 100 89 18 0 0 5 2 44 100 100 100 100
100 100 100 100 100 100 100 100 100 100 100 100 100 98 98 50 80 85 82 98 77 43 100 100 100 100 100 100 100 100 100 100 100 100 97 20 1 0 8 92 96 100 100 100 100
100 100 100 100 100 100 100 100 100 100 100 100 67 99 95 100 94 49 87 96 62 34 70 68 71 100 100 100 99 100 100 100 100 100 84 99 17 0 12 59 3 100 100 100 100
100 100 100 100 100 100 100 100 100 100 100 100 100 100 100 100 100 100 100 87 82 5 46 81 12 52 9 87 100 100 100 100 100 100 100 78 4 0 1 6 58 100 100 100 100
100 100 100 100 100 100 100 100 100 100 100 100 100 100 100 100 100 100 100 85 30 5 4 7 73 20 8 43 54 16 34 77 100 51 100 22 5 0 1 77 6 52 100 100 100
100 100 100 100 100 98 100 100 100 100 100 95 100 100 100 90 100 100 100 58 67 56 12 68 100 97 64 94 66 46 38 56 47 23 100 100 81 0 0 36 4 12 100 100 100
100 100 29 100 100 100 100 100 100 100 87 100 100 100 100 100 100 72 95 44 5 5 75 100 100 99 41 89 100 97 0 0 2 6 3 98 4 0 0 0 2 4 66 100 100

GFSSW_prec_cloud_147.txt.gz
Cloud_Cover
100 100 100 100 100 100 100 100 18 17 10 5 77 39 5 93 83 99 70 0 1 0 0 0 0 0 0 0 0 0 0 0 0 0 5 42 4 4 0 0 5 5 82 32 5
100 100 100 100 100 100 100 100 91 22 31 5 5 5 92 39 81 100 30 1 0 0 0 0 0 0 0 0 0 0 0 0 0 0 3 97 5 0 0 0 1 5 63 99 39
100 100 100 100 100 100 100 100 100 100 97 76 6 92 93 95 12 61 75 7 5 5 4 0 0 2 0 0 0 0 0 0 0 0 0 38 50 3 0 0 0 0 34 51 32
100 100 100 100 100 100 100 100 100 100 100 100 100 100 100 100 21 9 51 92 100 85 8 14 2 0 0 0 0 0 0 0 0 0 0 0 0 2 0 0 0 0 5 45 6
100 100 100 100 100 100 100 100 100 100 100 100 100 100 100 100 60 16 100 86 97 68 16 5 5 1 5 1 0 0 0 0 0 0 0 0 0 0 0 0 0 0 0 25 64
100 100 100 100 100 100 100 100 100 100 100 100 100 100 100 100 100 100 100 100 100 100 88 21 10 5 4 5 0 0 0 0 0 0 0 0 0 0 0 0 0 0 0 3 76
100 100 100 100 100 100 100 100 100 95 63 100 100 100 100 90 100 100 100 100 100 100 65 14 4 5 2 0 0 0 0 0 0 0 0 0 0 0 0 0 0 0 0 0 18
100 100 100 100 100 100 100 100 100 100 73 64 82 92 100 100 100 74 100 92 69 82 100 41 13 14 8 0 0 0 0 0 0 0 0 0 0 0 0 0 0 0 0 0 0
100 100 100 100 100 100 100 100 100 100 100 96 6 23 88 93 90 98 100 100 57 56 100 57 19 72 92 90 66 44 23 3 0 0 0 0 0 0 0 0 0 0 0 0 0
100 100 100 100 100 100 100 100 100 100 100 77 38 61 33 25 94 50 59 10 72 73 87 69 78 100 66 99 98 64 58 5 1 2 2 0 0 1 0 0 0 0 0 0 0
45 100 100 100 100 100 100 100 100 100 99 79 34 100 100 48 79 18 25 36 12 22 42 67 56 92 20 100 100 96 19 93 15 4 93 96 5 5 5 3 0 0 0 0 0
85 100 93 100 100 100 100 100 100 58 99 69 44 62 30 11 9 60 8 5 76 92 5 86 100 34 5 6 96 74 92 23 35 33 100 100 100 5 1 0 0 0 0 0 0
100 100 100 100 100 100 9 33 67 76 100 87 15 5 5 5 5 5 5 12 48 77 5 100 100 24 87 79 64 29 58 31 34 98 92 100 60 2 1 0 0 0 0 0 0
84 100 100 100 100 88 18 5 100 100 100 100 99 64 5 3 2 0 1 10 78 45 10 9 2 34 14 5 5 60 4 58 38 99 66 91 77 0 0 0 0 0 0 0 0
100 100 100 100 100 19 3 5 100 100 100 52 94 38 5 2 0 1 0 13 4 0 35 3 0 0 8 1 4 16 5 5 71 82 100 100 100 0 0 0 0 0 0 0 0
100 100 100 100 90 16 6 7 83 100 89 100 100 46 13 5 5 4 1 2 3 30 5 1 0 0 0 0 3 5 27 20 82 52 100 8 81 0 0 0 0 0 0 0 0
100 100 100 98 74 95 96 98 100 100 61 100 100 88 21 88 82 43 5 81 54 93 84 11 3 5 2 4 5 5 8 84 100 100 68 0 90 6 0 0 0 0 0 0 0
100 100 100 100 99 100 100 100 100 81 100 94 79 98 100 88 86 49 49 97 91 5 5 74 75 4 2 8 3 5 8 85 84 83 9 5 70 0 0 0 0 0 0 0 0
100 100 100 100 100 86 100 100 91 6 43 100 100 100 100 100 51 100 87 97 7 5 3 5 5 2 0 1 9 6 5 11 100 89 99 8 4 0 0 0 0 0 0 0 0
100 100 100 100 100 100 100 100 29 36 5 100 100 100 100 96 100 100 100 40 36 4 0 0 0 0 5 23 0 2 3 9 85 100 94 20 4 0 0 0 4 1 5 0 0
100 100 100 100 100 100 100 94 81 66 36 97 94 98 78 90 5 36 55 10 1 2 14 35 3 0 5 7 56 89 31 84 47 96 73 91 24 0 0 0 1 37 47 7 15
100 100 100 100 100 100 100 100 5 11 100 100 99 67 8 47 36 84 26 5 2 5 9 100 74 4 5 87 41 18 22 99 100 40 75 64 16 3 0 1 78 100 100 100 71
100 98 100 100 100 100 72 86 28 6 90 92 100 99 5 22 81 64 100 97 90 100 100 62 13 19 5 1 8 19 73 100 100 100 31 76 5 5 78 10 56 100 100 96 98
99 100 100 100 100 100 100 100 93 22 67 100 82 46 5 6 5 73 100 100 100 34 31 98 5 1 0 4 6 3 47 82 100 86 16 78 3 0 54 77 23 20 78 81 96
68 98 100 100 100 100 100 100 49 100 71 100 100 89 5 45 100 100 100 100 15 5 66 8 5 5 5 5 5 17 5 19 82 100 99 40 20 0 100 100 94 16 100 100 100
82 100 100 96 92 94 44 93 5 68 99 100 100 8 5 4 16 100 100 93 14 91 100 98 98 12 5 10 90 14 37 64 11 49 64 70 10 42 27 100 76 55 62 100 100
73 100 100 100 90 100 98 88 21 77 66 37 100 100 8 0 4 100 100 100 100 100 70 36 92 69 83 37 37 9 69 25 5 27 16 5 0 57 0 6 36 5 5 5 5